Simultaneous Nadir Overpasses (SNOs) Predictions

Prediction of SNOs between GOES-16 and NOAA-19 Satellite Orbit:

Table of predicted SNOs for the next 14.0 days since TLE Epoch: 2/19/2022
Index Date Time (GOES-16) GOES-16 Lat,Lon NOAA-19 Lat,Lon Distance(km) Time Diff (sec)
1 02/19/2022 12:25:18 -0.01, -75.23 -0.27, -74.05 134.52 80
2 02/20/2022 12:13:31 -0.01, -75.23 -0.97, -71.18 463.33 80
3 02/22/2022 00:48:47 -0.00, -75.21 -0.88, -78.98 430.24 80
4 02/23/2022 00:37:00 0.00, -75.21 -0.20, -76.10 101.51 80
5 02/24/2022 00:22:32 0.00, -75.21 0.48, -73.23 227.25 80
6 02/26/2022 12:45:47 0.01, -75.25 0.65, -78.10 325.13 80
7 02/27/2022 12:33:58 0.01, -75.25 0.01, -75.21 4.49 80
8 02/28/2022 12:19:31 0.01, -75.26 -0.68, -72.34 333.73 80
9 03/03/2022 00:43:01 -0.02, -75.26 -0.50, -77.26 229.20 80
10 03/04/2022 00:28:33 -0.02, -75.27 0.19, -74.39 101.06 80
11 03/05/2022 00:16:46 -0.02, -75.29 0.87, -71.52 431.50 80
